[[{"header":{"parameterUnit":"m.s-1","parameterCategory":1,"la1":30.2991,"la2":30.254,"lo1":-89.0895,"lo2":-89.0444,"dy":0.0017,"dx":0.0017,"nx":28,"ny":28,"refTime":"2025-07-08T03:00:00:Z","depth":0,"parameterNumber":2,"parameterNumberName":"U-component_of_WINDS"},"data":[0,0,0,0,0,0,0,0,0,0,0,0,0,0,0,0,0,0,0,0,0,0,0,0,0,0,0,0,0,0,0,0,0,0,0,0,0,0,0,0,0,0,0,0,0,0,0,0,0,0,0,0,0,0,0,0,0,0,3.8616,3.8617,0,3.8709,3.871,3.8711,3.8648,3.8645,3.8642,3.864,3.8734,3.8739,3.8745,0,0,0,0,0,0,0,0,0,0,0,0,0,3.8382,3.8387,3.8616,3.8617,3.8618,3.8708,3.871,3.8711,3.8649,3.8645,3.8642,3.8638,3.8733,3.8739,3.8745,0,0,0,0,0,0,0,0,0,0,0,0,0,3.848,3.8388,3.8616,3.8598,3.8597,3.8708,3.871,3.8711,3.8649,3.8645,3.8641,3.8637,3.8731,3.8738,3.8746,3.888,0,0,3.877,3.8773,0,0,0,0,0,0,0,0,3.8475,3.8489,3.8599,3.8599,3.8599,3.8662,3.8662,3.8768,3.865,3.8629,3.864,3.8635,3.8714,3.8723,3.875,3.8884,3.8888,3.877,3.8775,3.8778,3.8781,0,0,0,0,0,0,0,3.8468,3.8484,3.8652,3.8601,3.8601,3.8584,3.8594,3.8682,3.8695,3.8631,3.8627,3.8638,3.8713,3.8742,3.8751,3.8889,3.877,3.8777,3.8782,3.8785,3.9135,3.9139,0,0,0,0,0,0,3.8463,3.8479,3.8649,3.8655,3.8525,3.8592,3.8602,3.8646,3.8693,3.8696,3.8642,3.8635,3.8731,3.8742,3.8754,3.8912,3.8778,3.8786,3.879,3.913,3.9136,3.9141,0,0,0,0,0,0,3.8458,3.8479,3.8646,3.8566,3.8586,3.8601,3.865,3.865,3.868,3.8702,3.8704,3.867,3.8728,3.8744,3.8848,3.8914,3.8789,3.8796,3.9125,3.9132,3.9139,3.9229,0,0,0,0,0,0,3.8452,3.8477,3.8529,3.8568,3.8591,3.8739,3.8655,3.8655,3.8693,3.8685,3.8728,3.8731,3.8726,3.8837,3.8856,3.8923,3.8802,3.9119,3.9128,3.9136,3.922,3.9238,3.9254,0,0,0,0,0,3.8444,3.8551,3.8532,3.8553,3.8656,3.8743,3.8756,3.8748,3.8699,3.875,3.8764,3.873,3.8904,3.8848,3.8869,3.8939,3.9115,3.9126,3.9136,3.9213,3.9235,3.9253,0,0,0,0,0,0,3.8521,3.8556,3.8535,3.8659,3.8698,3.8732,3.8797,3.8772,3.8826,3.8816,3.8803,3.8813,3.8923,3.8942,3.8879,3.907,3.9002,3.9017,3.9053,3.9074,3.9091,3.9083,3.8809,0,0,0,0,0,3.8552,3.862,3.8648,3.8754,3.8775,3.8783,3.882,3.881,3.8851,3.8867,3.8889,3.8929,3.8992,3.9034,3.9094,3.9223,3.923,3.9281,3.9298,3.9312,3.9324,3.9391,3.9413,3.9175,3.9175,3.9175,0,0,3.8617,3.8645,3.8689,3.877,3.88,3.887,3.8797,3.8875,3.8926,3.8879,3.8978,3.8996,3.904,3.9156,3.9209,3.9175,3.9392,3.9325,3.9336,3.9341,3.9404,3.9427,3.9447,3.9182,3.9181,3.918,0,0,3.8772,3.8801,3.8892,3.8922,3.8967,3.8971,3.8993,3.9031,3.904,3.914,3.9105,3.9166,3.9276,3.9308,3.9338,3.9503,3.9473,3.9523,3.961,3.9675,3.9694,3.971,3.9767,3.9787,3.9536,3.9536,3.9536,0,3.8848,3.8952,3.8941,3.9021,3.9057,3.9016,3.9107,3.9137,3.92,3.9225,3.9187,3.9322,3.9349,3.9471,3.9511,3.9538,3.9561,3.9517,3.9692,3.9708,3.9724,3.9777,3.9799,3.9542,3.9541,3.954,3.954,0,3.9042,3.9115,3.9183,3.9243,3.9286,3.9372,3.9372,3.9417,3.9403,3.9411,3.9511,3.9542,3.9606,3.9635,3.9622,3.9755,3.9732,3.9694,3.9625,3.9752,3.9802,3.9823,3.955,3.9548,3.9546,3.9545,0,0,3.9249,3.93,3.9325,3.9351,3.9397,3.9453,3.9535,3.9597,3.9635,3.9679,3.9747,3.984,3.9803,3.9838,3.9829,3.9886,4.0012,3.984,3.9841,3.9869,4.0157,4.0184,4.0208,3.9992,3.9996,3.9999,4.0152,0,3.9404,3.9548,3.9539,3.9674,3.9739,3.9701,3.9772,3.9808,3.9817,3.9873,3.9883,3.9948,3.9897,3.9917,3.9972,3.9985,4.0069,3.9974,4.0053,4.0056,4.0042,4.0235,4.0265,4.0408,4.0172,4.0175,4.0178,0,3.9606,3.9655,3.9796,3.9829,3.9857,3.9921,3.9976,4.0031,4.007,4.0072,4.011,4.009,4.0172,4.0102,4.0213,4.0148,4.018,4.0191,4.0196,4.0202,4.0124,4.0244,4.0454,4.0474,4.0209,4.0206,4.0204,0,3.9739,3.9842,3.9938,3.9962,4.0004,4.005,4.0069,4.0104,4.0141,4.0189,4.0212,4.027,4.0301,4.0345,4.034,4.029,4.0453,4.0383,4.0455,4.0456,4.0491,4.0488,4.0706,4.0514,4.0514,4.0514,4.0513,0,3.9913,4.0001,3.9999,4.0058,4.0154,4.0143,4.0237,4.0252,4.0282,4.0343,4.0314,4.0371,4.0362,4.042,4.0417,4.0508,4.0523,4.0526,4.0524,4.0527,4.0527,4.0547,4.0537,4.0519,4.0518,4.0517,4.0516,0,4.0079,4.0082,4.0184,4.0215,4.0225,4.0294,4.0319,4.0375,4.0381,4.0458,4.0475,4.0484,4.055,4.055,4.0625,4.0623,4.0734,4.0722,4.0721,4.0718,4.0789,4.0782,4.1027,4.1057,4.0848,4.085,4.0851,0,4.0189,4.0255,4.0293,4.0331,4.0353,4.0415,4.0452,4.0443,4.0483,4.053,4.058,4.0642,4.0692,4.0798,4.0811,4.0868,4.0855,4.0937,4.0864,4.0864,4.0854,4.0849,4.0855,4.0951,4.0953,4.0955,4.0957,0,4.0384,4.0381,4.0436,4.0491,4.0536,4.0579,4.0619,4.0652,4.0646,4.0692,4.0759,4.0797,4.0873,4.0934,4.0989,4.1008,4.0981,4.098,4.0999,4.1003,4.0999,4.1,4.0758,4.0974,4.0972,4.0971,4.097,4.097,4.0524,4.058,4.0614,4.0675,4.0704,4.0741,4.0793,4.0805,4.086,4.0921,4.0912,4.0985,4.1019,4.1089,4.1113,4.117,4.1141,4.117,4.1177,4.1183,4.119,4.0991,4.118,4.1179,4.1179,4.1178,4.1178,0,4.0715,4.0735,4.0791,4.0847,4.0894,4.0865,4.0907,4.0948,4.1013,4.1047,4.1096,4.1171,4.123,4.1247,4.1304,4.1345,4.1334,4.136,4.1356,4.1361,4.1214,4.119,4.1368,4.1368,4.1368,4.1368,4.1368,4.1368,4.082,4.0912,4.0913,4.1018,4.1036,4.1108,4.1134,4.1167,4.1194,4.1278,4.1327,4.1338,4.1364,4.1422,4.1475,4.1478,4.1499,4.153,4.1528,4.1391,4.1371,4.1353,4.1331,4.1535,4.1536,4.167,4.1672,4.1673]},{"header":{"parameterUnit":"m.s-1","parameterCategory":1,"la1":30.2991,"la2":30.254,"lo1":-89.0895,"lo2":-89.0444,"dy":0.0017,"dx":0.0017,"nx":28,"ny":28,"refTime":"2025-07-08T03:00:00:Z","depth":0,"parameterNumber":3,"parameterNumberName":"V-component_of_WINDS"},"data":[0,0,0,0,0,0,0,0,0,0,0,0,0,0,0,0,0,0,0,0,0,0,0,0,0,0,0,0,0,0,0,0,0,0,0,0,0,0,0,0,0,0,0,0,0,0,0,0,0,0,0,0,0,0,0,0,0,0,-0.1871,-0.1872,0,-0.1927,-0.1928,-0.1928,-0.1956,-0.1956,-0.1956,-0.1956,-0.2009,-0.2011,-0.2012,0,0,0,0,0,0,0,0,0,0,0,0,0,-0.1786,-0.1788,-0.1871,-0.1872,-0.1873,-0.1927,-0.1928,-0.1928,-0.1956,-0.1956,-0.1956,-0.1956,-0.2009,-0.201,-0.2012,0,0,0,0,0,0,0,0,0,0,0,0,0,-0.1831,-0.1788,-0.1871,-0.1893,-0.1895,-0.1927,-0.1928,-0.1929,-0.1956,-0.1956,-0.1956,-0.1956,-0.2008,-0.201,-0.2012,-0.2025,0,0,-0.2019,-0.202,0,0,0,0,0,0,0,0,-0.1828,-0.1834,-0.1889,-0.1891,-0.1894,-0.1934,-0.1917,-0.1961,-0.1956,-0.1933,-0.1956,-0.1956,-0.1984,-0.1988,-0.1999,-0.2028,-0.203,-0.2019,-0.202,-0.2021,-0.2022,0,0,0,0,0,0,0,-0.1825,-0.1831,-0.1893,-0.189,-0.1893,-0.1899,-0.1905,-0.1926,-0.1957,-0.1935,-0.1937,-0.1943,-0.1986,-0.1996,-0.2,-0.2031,-0.2019,-0.2021,-0.2022,-0.2023,-0.2075,-0.2075,0,0,0,0,0,0,-0.1819,-0.1829,-0.1891,-0.1895,-0.1861,-0.1901,-0.1908,-0.1921,-0.1957,-0.1963,-0.1943,-0.1944,-0.1993,-0.1997,-0.2002,-0.202,-0.2021,-0.2023,-0.2024,-0.2075,-0.2075,-0.2075,0,0,0,0,0,0,-0.1817,-0.1824,-0.1889,-0.1862,-0.1871,-0.1902,-0.1917,-0.1922,-0.1933,-0.1964,-0.1969,-0.1948,-0.1993,-0.1999,-0.202,-0.2022,-0.2024,-0.2026,-0.2075,-0.2075,-0.2075,-0.2056,0,0,0,0,0,0,-0.1814,-0.1823,-0.1829,-0.1862,-0.1873,-0.1906,-0.1917,-0.1924,-0.1937,-0.1939,-0.197,-0.1975,-0.1993,-0.2017,-0.2022,-0.2025,-0.2028,-0.2075,-0.2075,-0.2075,-0.2057,-0.2056,-0.2055,0,0,0,0,0,-0.1811,-0.182,-0.1829,-0.1836,-0.188,-0.1907,-0.1912,-0.1934,-0.1938,-0.1943,-0.1963,-0.1974,-0.2021,-0.2018,-0.2025,-0.2029,-0.2074,-0.2075,-0.2075,-0.2057,-0.2056,-0.2055,0,0,0,0,0,0,-0.1784,-0.1825,-0.1835,-0.1855,-0.1878,-0.1911,-0.1919,-0.1932,-0.1952,-0.1953,-0.1978,-0.1985,-0.2003,-0.2018,-0.2014,-0.2044,-0.2049,-0.2051,-0.2033,-0.2033,-0.2032,-0.2027,-0.203,0,0,0,0,0,-0.1781,-0.18,-0.1834,-0.1849,-0.186,-0.1887,-0.19,-0.1915,-0.1938,-0.1947,-0.1968,-0.199,-0.201,-0.2022,-0.2042,-0.2059,-0.2067,-0.2065,-0.2065,-0.2064,-0.2064,-0.2076,-0.2076,-0.2076,-0.2076,-0.2076,0,0,-0.1774,-0.1798,-0.1808,-0.1844,-0.1863,-0.1882,-0.1895,-0.1913,-0.1927,-0.1949,-0.1971,-0.1988,-0.2013,-0.2033,-0.2043,-0.2046,-0.2066,-0.2064,-0.2063,-0.2064,-0.2076,-0.2076,-0.2076,-0.2076,-0.2076,-0.2076,0,0,-0.177,-0.1791,-0.1806,-0.1825,-0.1855,-0.1873,-0.1877,-0.1909,-0.1922,-0.1944,-0.1961,-0.1978,-0.2011,-0.2029,-0.2043,-0.2048,-0.206,-0.2054,-0.2049,-0.206,-0.206,-0.206,-0.2062,-0.2063,-0.2055,-0.2055,-0.2055,0,-0.1757,-0.1787,-0.1812,-0.183,-0.1845,-0.1868,-0.1884,-0.1901,-0.1934,-0.1944,-0.1948,-0.1991,-0.201,-0.2035,-0.2037,-0.2047,-0.2051,-0.205,-0.2058,-0.2058,-0.2059,-0.2061,-0.2062,-0.2054,-0.2054,-0.2054,-0.2054,0,-0.177,-0.179,-0.1799,-0.1833,-0.1849,-0.1865,-0.1892,-0.1906,-0.192,-0.1938,-0.1961,-0.1985,-0.2011,-0.2018,-0.203,-0.2044,-0.2046,-0.2053,-0.2059,-0.2058,-0.206,-0.2062,-0.2053,-0.2053,-0.2053,-0.2054,0,0,-0.1749,-0.1799,-0.1801,-0.1817,-0.1852,-0.1868,-0.1886,-0.1913,-0.1924,-0.1947,-0.1962,-0.1991,-0.1999,-0.2015,-0.203,-0.204,-0.2043,-0.2046,-0.2047,-0.2045,-0.2061,-0.2055,-0.2055,-0.2052,-0.2052,-0.2052,-0.2059,0,-0.1751,-0.1785,-0.1809,-0.1834,-0.1853,-0.1876,-0.1892,-0.1915,-0.1933,-0.1952,-0.1971,-0.1991,-0.2,-0.201,-0.202,-0.2041,-0.2047,-0.2041,-0.2066,-0.2066,-0.2059,-0.2057,-0.205,-0.2055,-0.206,-0.206,-0.206,0,-0.1757,-0.1781,-0.1808,-0.1843,-0.1852,-0.1865,-0.1893,-0.191,-0.1937,-0.1949,-0.1968,-0.1984,-0.2004,-0.2009,-0.2036,-0.2031,-0.2043,-0.2055,-0.2056,-0.2059,-0.2063,-0.206,-0.2057,-0.2058,-0.2062,-0.2062,-0.2062,0,-0.1739,-0.1779,-0.1801,-0.1814,-0.1854,-0.1864,-0.1881,-0.1908,-0.1923,-0.1946,-0.1956,-0.1981,-0.1994,-0.2013,-0.2036,-0.2037,-0.2061,-0.2068,-0.2072,-0.2071,-0.2075,-0.2075,-0.2075,-0.2083,-0.2083,-0.2083,-0.2083,0,-0.1738,-0.1754,-0.1794,-0.1807,-0.1826,-0.1853,-0.187,-0.1889,-0.1913,-0.1931,-0.1952,-0.1967,-0.1996,-0.2015,-0.2033,-0.2054,-0.2059,-0.207,-0.2074,-0.2068,-0.2067,-0.2076,-0.2076,-0.2084,-0.2084,-0.2083,-0.2083,0,-0.1722,-0.1749,-0.1774,-0.1811,-0.1821,-0.1833,-0.1865,-0.1879,-0.1899,-0.192,-0.1927,-0.1958,-0.1981,-0.2006,-0.2038,-0.205,-0.207,-0.2076,-0.2061,-0.2064,-0.2067,-0.2066,-0.2072,-0.2075,-0.2082,-0.2081,-0.2081,0,-0.1719,-0.1732,-0.1771,-0.1785,-0.1803,-0.1824,-0.184,-0.1868,-0.1884,-0.1916,-0.1926,-0.1952,-0.1974,-0.201,-0.2035,-0.206,-0.2067,-0.2067,-0.207,-0.2064,-0.2067,-0.2066,-0.2067,-0.2066,-0.2066,-0.2065,-0.2065,0,-0.1711,-0.1725,-0.1748,-0.1776,-0.1795,-0.1818,-0.1842,-0.1852,-0.1884,-0.1901,-0.1926,-0.1943,-0.1977,-0.2002,-0.203,-0.2047,-0.2062,-0.2065,-0.2067,-0.206,-0.2051,-0.2056,-0.2058,-0.2064,-0.2064,-0.2064,-0.2064,-0.2064,-0.1702,-0.1715,-0.1746,-0.1771,-0.1792,-0.1814,-0.183,-0.1853,-0.1875,-0.1905,-0.192,-0.1946,-0.1973,-0.2013,-0.2029,-0.2049,-0.2053,-0.2057,-0.2058,-0.2058,-0.2056,-0.2049,-0.2054,-0.2055,-0.2055,-0.2055,-0.2055,0,-0.1696,-0.1717,-0.174,-0.1774,-0.1794,-0.1808,-0.1835,-0.1851,-0.1874,-0.1899,-0.1921,-0.195,-0.1975,-0.2003,-0.203,-0.2041,-0.2048,-0.2047,-0.2046,-0.205,-0.2051,-0.2047,-0.204,-0.204,-0.204,-0.204,-0.204,-0.204,-0.1695,-0.1718,-0.1736,-0.177,-0.1791,-0.1818,-0.1832,-0.1853,-0.1873,-0.1906,-0.1928,-0.1946,-0.1973,-0.2002,-0.2025,-0.2033,-0.2042,-0.2038,-0.2048,-0.2048,-0.2049,-0.205,-0.2046,-0.204,-0.204,-0.2045,-0.2045,-0.2045]}]]